7 * 24
多渠道服务支持
MOLNIYA 1-62 是一颗俄罗斯通信卫星,于1998年发射,运行在高椭圆轨道上,主要用于电视广播和通信服务。该卫星由 Energiya 公司制造,搭载多种转发器,覆盖范围主要在俄罗斯及周边地区。MOLNIYA 系列卫星因其特殊的轨道设计,能够在高纬度地区提供较长的通信时间。MOLNIYA 1-62 在轨期间为多个广播和数据传输任务提供了支持,是俄罗斯早期通信卫星系统的重要组成部分。
| 数据来源 | 国际轨道数据 |
| 星历时间: | 2023-08-31T01:15:44+0800 轨道信息已过期790天 |
| 半长轴: | 23508.838km |
| 偏心率: | 0.7209231 |
| 轨道倾角: | 61.529° |
| 近地点辐角 | 51.115° |
| 升交点赤经 | 299.950° |
| 平近点角 | 353.539° |
| 近地点: | 182.638km |
| 远地点: | 34078.768km |
| 周期: | 597.870分钟 |
| 每日圈数: | 2.408552 |